Accueil
METAR-TAF:

METAR-TAF

Aéroports :

Pembrey, Pays de Galles

latitude: 51-43N, longitude: 004-22W, altitude: 3 m

Observation

Le bulletin a été fait il y a 1 heure et 27 minutes, à 07:50 UTC
Vent 18 kt de ouest
Température 15°C
Humidité 77%
Pression 1018 hPa
Visibilité 10 km ou plus

METAR: EGOP 190750Z AUTO 28018KT 9999 // FEW019/// BKN060/// 15/11 Q1018

Heure: 10:17 (09:17 UTC)


TAF: absent

Observations et prévisions météorologiques de plus de 4000 aéroports (messages METAR et TAF).

Les stations disponibles sont représentées par des disques jaunes et rouges sur la carte.

Passer la souris dessus pour voir le nom de la station.

Cliquer dessus pour voir les observations et prévisions météorologiques.

Pour changer de carte: cliquez sur les boutons verts avec une croix noire pour zoomer, sur le bouton vert avec un tiret pour effectuer un zoom arrière, ou sur les flèches vertes pour les cartes adjacentes.


METAR-TAF: